ES'HAIL 2 (43700 NORAD) Tracking and Keplerian Element Data

This shows tracking and keplerian element data for the satellite.

Feedback or suggestion? Click here.




ElementValue
Catalog43700
NameES'HAIL 2
Epoch Orbit1903
Epoch Day13.08920926
Epoch Year2024
RAAN53.877
Inclination0.0216
Eccentricity0.0002313
Argument of Perigee285.8747
Mean Anonmoly190.2344
Mean Motion1.0026858
Decay Rate1.52E-06
L11 43700U 18090A 24013.08920926 .00000152 00000+0 00000+0 0 9994
L22 43700 0.0216 53.8770 0002313 285.8747 190.2344 1.00268580 19031



Live tracking and technical data element details for ES'HAIL 2 (NORAD 43700). ES'HAIL 2 can be tracked NOW for your location showing map with azimuth and elevation plus other details from your city location.







IsCatalogInMostPopularTable: catalog: 43700, numindb: 10522
Update: records affected: 1



GetName: 43700 ES'HAIL 2

Hit Count: updated at: Fri, 01 Mar 2024 11:47:05 GMT